TimeEDT,TemperatureF,Dew PointF,Humidity,Sea Level PressureIn,VisibilityMPH,Wind Direction,Wind SpeedMPH,Gust SpeedMPH,PrecipitationIn,Events,Conditions,WindDirDegrees,DateUTC
12:55 AM,50.7,47.5,89,30.33,10.0,East,3.5,-,N/A,,Clear,100,2012-10-14 04:55:00
1:55 AM,50.5,47.5,89,30.31,10.0,East,3.5,-,N/A,,Clear,80,2012-10-14 05:55:00
2:55 AM,49.1,46.9,92,30.28,10.0,East,4.6,-,N/A,,Clear,80,2012-10-14 06:55:00
3:55 AM,49.3,47.8,95,30.27,10.0,East,3.5,-,N/A,,Clear,90,2012-10-14 07:55:00
4:55 AM,49.1,46.6,91,30.26,10.0,Calm,Calm,-,N/A,,Clear,0,2012-10-14 08:55:00
5:55 AM,49.1,46.8,92,30.27,10.0,Calm,Calm,-,N/A,,Clear,0,2012-10-14 09:55:00
6:55 AM,46.6,45.1,95,30.26,10.0,Calm,Calm,-,N/A,,Clear,0,2012-10-14 10:55:00
7:55 AM,49.5,47.3,92,30.27,10.0,Calm,Calm,-,N/A,,Clear,0,2012-10-14 11:55:00
8:55 AM,55.8,52.3,88,30.28,10.0,Calm,Calm,-,N/A,,Clear,0,2012-10-14 12:55:00
9:55 AM,64.4,58.1,80,30.28,10.0,Calm,Calm,-,N/A,,Clear,0,2012-10-14 13:55:00
10:55 AM,69.3,58.8,69,30.27,10.0,Calm,Calm,-,N/A,,Clear,0,2012-10-14 14:55:00
11:55 AM,75.4,59.5,58,30.25,10.0,SE,6.9,-,N/A,,Clear,140,2012-10-14 15:55:00
1:55 PM,79.2,55.8,44,30.18,10.0,South,6.9,-,N/A,,Clear,170,2012-10-14 17:55:00
2:55 PM,79.7,55.8,44,30.16,10.0,SSW,5.8,-,N/A,,Partly Cloudy,210,2012-10-14 18:55:00
3:55 PM,80.4,54.9,41,30.13,10.0,South,5.8,-,N/A,,Scattered Clouds,180,2012-10-14 19:55:00
4:55 PM,80.1,55.0,42,30.11,10.0,SW,6.9,-,N/A,,Clear,220,2012-10-14 20:55:00
5:55 PM,76.6,55.9,49,30.11,10.0,SW,5.8,-,N/A,,Clear,230,2012-10-14 21:55:00
6:55 PM,69.4,57.9,67,30.11,10.0,Calm,Calm,-,N/A,,Clear,0,2012-10-14 22:55:00
7:55 PM,65.1,55.8,72,30.10,10.0,SSE,4.6,-,N/A,,Mostly Cloudy,150,2012-10-14 23:55:00
8:55 PM,68.5,60.1,74,30.09,10.0,SE,4.6,-,N/A,,Clear,140,2012-10-15 00:55:00
9:55 PM,67.1,60.8,80,30.08,10.0,SSE,5.8,-,N/A,,Clear,150,2012-10-15 01:55:00
10:55 PM,65.8,61.0,84,30.06,10.0,Variable,4.6,-,N/A,,Clear,0,2012-10-15 02:55:00
11:55 PM,64.4,60.6,88,30.05,10.0,SE,3.5,-,N/A,,Clear,140,2012-10-15 03:55:00